Location: Etzleinsberg
(48.4833°N, 14.0333°E)
Time: 07:08:58
(UTC+00:00)

Cosmos 1953 Rocket - Pass Details

Date: 07 June 2020
Orbit: 603 x 635 km, 82.5° (Epoch: 07 July)

Event Time Altitude Azimuth Distance (km) Brightness Sun altitude
Exits shadow 00:33:32 29° 207° (SSW) 1,150 4.3 -15.9°
Maximum altitude 00:35:41 65° 281° (W) 684 3.7 -15.8°
Drops below altitude 10° 00:40:05 10° 4° (N) 1,990 7.3 -15.5°
Sets 00:42:20 0° 8° (N) 2,895 8.5 -15.3°
